TimeCDT,TemperatureF,Dew PointF,Humidity,Sea Level PressureIn,VisibilityMPH,Wind Direction,Wind SpeedMPH,Gust SpeedMPH,PrecipitationIn,Events,Conditions,WindDirDegrees,DateUTC
12:15 AM,68.0,68.0,100,30.06,10.0,SSE,3.5,-,N/A,,Clear,160,2012-11-03 05:15:00
12:35 AM,68.0,68.0,100,30.06,10.0,SSE,3.5,-,N/A,,Clear,160,2012-11-03 05:35:00
12:55 AM,68.0,68.0,100,30.05,10.0,SSE,3.5,-,N/A,,Clear,150,2012-11-03 05:55:00
1:15 AM,68.0,68.0,100,30.05,10.0,Calm,Calm,-,N/A,,Clear,0,2012-11-03 06:15:00
1:35 AM,68.0,68.0,100,30.05,10.0,SSE,3.5,-,N/A,,Clear,160,2012-11-03 06:35:00
1:55 AM,68.0,68.0,100,30.05,10.0,SSE,3.5,-,N/A,,Clear,150,2012-11-03 06:55:00
2:15 AM,68.0,68.0,100,30.05,10.0,SSE,3.5,-,N/A,,Clear,160,2012-11-03 07:15:00
2:35 AM,68.0,68.0,100,30.05,10.0,SSE,3.5,-,N/A,,Clear,160,2012-11-03 07:35:00
2:55 AM,64.4,64.4,100,30.05,1.0,Calm,Calm,-,N/A,,Mist,0,2012-11-03 07:55:00
3:15 AM,64.4,64.4,100,30.05,0.8,Calm,Calm,-,N/A,,Mist,0,2012-11-03 08:15:00
3:35 AM,62.6,62.6,100,30.04,0.2,Calm,Calm,-,N/A,Fog,Fog,0,2012-11-03 08:35:00
3:55 AM,62.6,62.6,100,30.04,0.5,Calm,Calm,-,N/A,Fog,Fog,0,2012-11-03 08:55:00
4:15 AM,62.6,62.6,100,30.05,0.2,SSE,3.5,-,N/A,Fog,Fog,160,2012-11-03 09:15:00
4:55 AM,64.4,64.4,100,30.05,0.5,Calm,Calm,-,N/A,Fog,Fog,0,2012-11-03 09:55:00
5:15 AM,64.4,64.4,100,30.06,0.5,Calm,Calm,-,N/A,Fog,Fog,0,2012-11-03 10:15:00
5:35 AM,62.6,62.6,100,30.06,0.2,Calm,Calm,-,N/A,Fog,Fog,0,2012-11-03 10:35:00
5:55 AM,62.6,62.6,100,30.07,0.2,Calm,Calm,-,N/A,Fog,Fog,0,2012-11-03 10:55:00
6:15 AM,60.8,60.8,100,30.07,0.2,Calm,Calm,-,N/A,Fog,Fog,0,2012-11-03 11:15:00
6:35 AM,60.8,60.8,100,30.08,0.2,Calm,Calm,-,N/A,Fog,Fog,0,2012-11-03 11:35:00
6:55 AM,60.8,60.8,100,30.08,0.2,Calm,Calm,-,N/A,Fog,Fog,0,2012-11-03 11:55:00
7:15 AM,-9999,-9999,N/A,30.09,0.2,Calm,Calm,-,N/A,Fog,Fog,0,2012-11-03 12:15:00
7:35 AM,-9999,-9999,N/A,30.10,0.2,Calm,Calm,-,N/A,Fog,Fog,0,2012-11-03 12:35:00
7:55 AM,-9999,-9999,N/A,30.10,0.2,Calm,Calm,-,N/A,Fog,Fog,0,2012-11-03 12:55:00
8:15 AM,-9999,-9999,N/A,30.11,0.2,Calm,Calm,-,N/A,Fog,Fog,0,2012-11-03 13:15:00
8:35 AM,-9999,-9999,N/A,30.12,0.2,Calm,Calm,-,N/A,Fog,Fog,0,2012-11-03 13:35:00
8:55 AM,-9999,-9999,N/A,30.12,0.2,Calm,Calm,-,N/A,Fog,Fog,0,2012-11-03 13:55:00
9:15 AM,71.6,71.6,100,30.13,4.0,Calm,Calm,-,N/A,,Scattered Clouds,0,2012-11-03 14:15:00
9:35 AM,73.4,73.4,100,30.13,10.0,Calm,Calm,-,N/A,,Clear,0,2012-11-03 14:35:00
9:55 AM,73.4,73.4,100,30.13,10.0,South,3.5,-,N/A,,Clear,180,2012-11-03 14:55:00
10:15 AM,73.4,73.4,100,30.13,10.0,Calm,Calm,-,N/A,,Clear,0,2012-11-03 15:15:00
10:35 AM,73.4,73.4,100,30.14,10.0,South,5.8,-,N/A,,Clear,180,2012-11-03 15:35:00
10:55 AM,73.4,73.4,100,30.13,10.0,South,6.9,-,N/A,,Clear,180,2012-11-03 15:55:00
11:15 AM,73.4,73.4,100,30.14,10.0,South,10.4,-,N/A,,Clear,180,2012-11-03 16:15:00
11:35 AM,77.0,71.6,83,30.14,10.0,South,9.2,-,N/A,,Clear,180,2012-11-03 16:35:00
11:55 AM,80.6,69.8,70,30.13,10.0,SSE,10.4,17.3,N/A,,Clear,160,2012-11-03 16:55:00
12:15 PM,80.6,69.8,70,30.12,10.0,SSE,12.7,-,N/A,,Clear,160,2012-11-03 17:15:00
12:35 PM,80.6,66.2,61,30.11,10.0,South,11.5,16.1,N/A,,Clear,180,2012-11-03 17:35:00
12:55 PM,82.4,68.0,62,30.10,10.0,South,10.4,16.1,N/A,,Clear,170,2012-11-03 17:55:00
1:15 PM,82.4,64.4,54,30.09,10.0,SSE,10.4,16.1,N/A,,Clear,160,2012-11-03 18:15:00
1:35 PM,82.4,66.2,58,30.08,10.0,South,10.4,-,N/A,,Clear,170,2012-11-03 18:35:00
1:55 PM,82.4,68.0,62,30.07,10.0,SSE,11.5,-,N/A,,Clear,160,2012-11-03 18:55:00
2:15 PM,82.4,64.4,54,30.06,10.0,South,11.5,-,N/A,,Clear,170,2012-11-03 19:15:00
2:35 PM,82.4,68.0,62,30.06,10.0,South,10.4,-,N/A,,Clear,180,2012-11-03 19:35:00
2:55 PM,82.4,66.2,58,30.05,10.0,SSE,11.5,16.1,N/A,,Clear,160,2012-11-03 19:55:00
3:15 PM,80.6,66.2,61,30.04,10.0,South,12.7,-,N/A,,Clear,170,2012-11-03 20:15:00
3:35 PM,80.6,66.2,61,30.04,10.0,South,11.5,-,N/A,,Clear,180,2012-11-03 20:35:00
3:55 PM,80.6,66.2,61,30.04,10.0,South,11.5,-,N/A,,Clear,170,2012-11-03 20:55:00
4:15 PM,78.8,68.0,69,30.05,10.0,South,8.1,-,N/A,Thunderstorm,Clear,180,2012-11-03 21:15:00
4:35 PM,78.8,68.0,69,30.05,10.0,South,6.9,-,N/A,,Clear,170,2012-11-03 21:35:00
4:55 PM,77.0,68.0,74,30.04,10.0,South,8.1,-,N/A,,Clear,170,2012-11-03 21:55:00
5:15 PM,77.0,66.2,69,30.05,10.0,South,8.1,-,N/A,,Clear,170,2012-11-03 22:15:00
5:35 PM,77.0,68.0,74,30.06,10.0,South,8.1,-,N/A,,Clear,170,2012-11-03 22:35:00
5:55 PM,77.0,68.0,74,30.06,10.0,South,6.9,-,N/A,,Clear,180,2012-11-03 22:55:00
6:15 PM,75.2,68.0,78,30.06,10.0,South,9.2,-,N/A,,Clear,170,2012-11-03 23:15:00
6:35 PM,73.4,68.0,83,30.07,10.0,South,6.9,-,N/A,,Clear,180,2012-11-03 23:35:00
6:55 PM,73.4,68.0,83,30.07,10.0,Calm,Calm,-,N/A,,Clear,0,2012-11-03 23:55:00
7:15 PM,71.6,66.2,83,30.07,10.0,Calm,Calm,-,N/A,,Clear,0,2012-11-04 00:15:00
7:35 PM,69.8,64.4,83,30.08,10.0,Calm,Calm,-,N/A,,Clear,0,2012-11-04 00:35:00
7:55 PM,69.8,64.4,83,30.08,10.0,Calm,Calm,-,N/A,,Clear,0,2012-11-04 00:55:00
8:15 PM,68.0,64.4,88,30.08,10.0,Calm,Calm,-,N/A,,Clear,0,2012-11-04 01:15:00
8:35 PM,68.0,68.0,100,30.09,10.0,SE,3.5,-,N/A,,Clear,140,2012-11-04 01:35:00
8:55 PM,68.0,68.0,100,30.09,10.0,Calm,Calm,-,N/A,,Clear,0,2012-11-04 01:55:00
9:15 PM,68.0,68.0,100,30.09,10.0,Calm,Calm,-,N/A,,Clear,0,2012-11-04 02:15:00
9:35 PM,68.0,68.0,100,30.10,10.0,Calm,Calm,-,N/A,,Clear,0,2012-11-04 02:35:00
9:55 PM,68.0,68.0,100,30.10,10.0,Calm,Calm,-,N/A,,Clear,0,2012-11-04 02:55:00
10:15 PM,68.0,68.0,100,30.09,10.0,SSE,3.5,-,N/A,,Clear,160,2012-11-04 03:15:00
10:35 PM,68.0,68.0,100,30.09,10.0,Calm,Calm,-,N/A,,Clear,0,2012-11-04 03:35:00
11:15 PM,68.0,68.0,100,30.09,10.0,Calm,Calm,-,N/A,,Clear,0,2012-11-04 04:15:00
11:35 PM,66.2,66.2,100,30.09,10.0,Calm,Calm,-,N/A,,Clear,0,2012-11-04 04:35:00
11:55 PM,66.2,66.2,100,30.08,10.0,Calm,Calm,-,N/A,,Clear,0,2012-11-04 04:55:00